TimeEDT,TemperatureF,Dew PointF,Humidity,Sea Level PressureIn,VisibilityMPH,Wind Direction,Wind SpeedMPH,Gust SpeedMPH,PrecipitationIn,Events,Conditions,WindDirDegrees,DateUTC
12:54 AM,64.0,51.1,63,30.13,10.0,East,4.6,-,N/A,,Overcast,100,2013-09-18 04:54:00
1:54 AM,64.0,51.1,63,30.12,10.0,SE,8.1,-,N/A,,Overcast,130,2013-09-18 05:54:00
2:54 AM,63.0,51.1,65,30.12,10.0,SE,8.1,-,N/A,,Overcast,140,2013-09-18 06:54:00
3:54 AM,63.0,51.1,65,30.11,10.0,SE,6.9,-,N/A,,Overcast,130,2013-09-18 07:54:00
4:54 AM,63.0,52.0,67,30.10,10.0,East,4.6,-,N/A,,Overcast,100,2013-09-18 08:54:00
5:54 AM,62.1,52.0,70,30.11,10.0,ESE,3.5,-,N/A,,Overcast,110,2013-09-18 09:54:00
6:54 AM,62.1,52.0,70,30.12,10.0,East,4.6,-,N/A,,Overcast,100,2013-09-18 10:54:00
7:54 AM,62.1,53.1,72,30.13,10.0,ESE,4.6,-,N/A,,Mostly Cloudy,110,2013-09-18 11:54:00
8:54 AM,63.0,53.1,70,30.13,10.0,SSE,3.5,-,N/A,,Mostly Cloudy,150,2013-09-18 12:54:00
9:54 AM,64.9,54.0,68,30.14,10.0,SE,3.5,-,N/A,,Mostly Cloudy,140,2013-09-18 13:54:00
10:54 AM,70.0,55.0,59,30.14,10.0,Variable,4.6,-,N/A,,Mostly Cloudy,0,2013-09-18 14:54:00
11:54 AM,71.1,57.0,61,30.13,10.0,SSW,8.1,-,N/A,,Mostly Cloudy,210,2013-09-18 15:54:00
12:54 PM,73.0,57.9,59,30.12,10.0,SSW,5.8,-,N/A,,Mostly Cloudy,200,2013-09-18 16:54:00
1:54 PM,77.0,59.0,54,30.10,10.0,SSW,6.9,-,N/A,,Mostly Cloudy,210,2013-09-18 17:54:00
2:54 PM,79.0,60.1,52,30.07,10.0,SSE,4.6,-,N/A,,Scattered Clouds,160,2013-09-18 18:54:00
3:54 PM,81.0,62.1,52,30.04,10.0,SSW,10.4,16.1,N/A,,Scattered Clouds,200,2013-09-18 19:54:00
4:54 PM,81.0,62.1,52,30.02,10.0,South,5.8,-,N/A,,Mostly Cloudy,190,2013-09-18 20:54:00
5:54 PM,81.0,63.0,54,30.03,10.0,SSW,9.2,-,N/A,,Mostly Cloudy,200,2013-09-18 21:54:00
6:54 PM,78.1,62.1,58,30.02,10.0,SSW,11.5,-,N/A,,Mostly Cloudy,210,2013-09-18 22:54:00
7:54 PM,75.0,64.0,69,30.03,10.0,South,15.0,-,N/A,,Scattered Clouds,190,2013-09-18 23:54:00
8:54 PM,73.0,64.0,73,30.04,10.0,South,10.4,-,N/A,,Scattered Clouds,190,2013-09-19 00:54:00
9:54 PM,72.0,64.0,76,30.05,10.0,South,9.2,-,N/A,,Scattered Clouds,180,2013-09-19 01:54:00
10:54 PM,70.0,64.0,81,30.04,10.0,South,9.2,-,N/A,,Scattered Clouds,170,2013-09-19 02:54:00
11:54 PM,70.0,64.0,81,30.04,10.0,South,10.4,-,N/A,,Scattered Clouds,180,2013-09-19 03:54:00